Tracking 17694 objects as of 27-May-2016
HD Live streaming from Space Station
objects crossing your sky now

COSMOS 2315

Track COSMOS 2315 now!
10-day predictions
COSMOS 2315 is classified as:


NORAD ID: 23603
Int'l Code: 1995-032A
Perigee: 974.1 km
Apogee: 1,019.1 km
Inclination: 82.9 °
Period: 104.9 minutes
Semi major axis: 7367 km
RCS: 2.3448 m2 (large)
Launch date: July 5, 1995
Source: Commonwealth of Independent States (former USSR) (CIS)
Launch site: PLESETSK MISSILE AND SPACE COMPLEX (PKMTR)
Your satellite tracking list
Your tracking list is empty





NASA's NSSDC Master Catalog

Two Line Element Set (TLE):
1 23603U 95032A   16148.22141723  .00000035  00000-0  21742-4 0  9993
2 23603  82.9042  97.5921 0030569 340.7893 134.3139 13.72818453 46940
Source of the keplerian elements: AFSPC

N2YO: 730